Location: Plymouth
(43.7570°N, 71.6890°W)
Time: 10:04:12
(UTC-04:00)

Amateur Radio Satellites - All Passes

Search period start: 02 September 2014 09:34
Search period end: 03 September 2014 09:34
Location: Plymouth, 43.7570°N, 71.6890°W

Satellite Date Start Highest point End Downlink Frequencies (MHz)
Time Altitude Azimuth
RS-15 02 Sep 09:39:08 09:49:28 44° 322° (NW) 09:59:50 29.354 - 29.394 USB, Beacon 29.352 USB
ISS 02 Sep 09:49:01 09:52:15 52° 143° (SE) 09:55:31 145.800 FM
UKube-1 02 Sep 09:56:12 10:00:20 41° 99° (E) 10:04:26 145.840 MHz, 145.915 MHz
Oscar 11 02 Sep 09:59:36 10:03:30 31° 96° (E) 10:07:22 145.825 FM, Beacon 2401.500 USB
HO-68 02 Sep 10:01:17 10:08:29 77° 105° (ESE) 10:15:38 435.675 MHz FM
SO-50 02 Sep 10:15:02 10:18:21 18° 37° (NE) 10:21:43 436.795 FM
FUNcube-1 02 Sep 10:32:39 10:36:39 30° 96° (E) 10:40:41 145.950 - 145.970 MHz USB
MaSat-1 02 Sep 11:23:18 11:25:08 12° 98° (E) 11:27:00 437.345 MHz
ISS 02 Sep 11:26:05 11:29:07 32° 341° (NNW) 11:32:10 145.800 FM
UKube-1 02 Sep 11:33:05 11:36:16 20° 296° (WNW) 11:39:26 145.840 MHz, 145.915 MHz
Oscar 11 02 Sep 11:35:57 11:39:35 26° 293° (WNW) 11:43:12 145.825 FM, Beacon 2401.500 USB
HO-68 02 Sep 11:50:04 11:55:28 24° 305° (NW) 12:00:52 435.675 MHz FM
SO-50 02 Sep 11:54:44 11:59:33 86° 236° (WSW) 12:04:24 436.795 FM
RS-15 02 Sep 11:57:09 12:05:39 25° 355° (N) 12:14:15 29.354 - 29.394 USB, Beacon 29.352 USB
UOSAT-12 02 Sep 11:59:32 12:02:39 17° 35° (NE) 12:05:44 437.025 FM, 437.400 FM
FUNcube-1 02 Sep 12:09:02 12:12:59 30° 292° (WNW) 12:16:58 145.950 - 145.970 MHz USB
Oscar 19 02 Sep 12:18:22 12:22:14 22° 62° (ENE) 12:26:08 437.125 CW, 437.150 USB
JAS-1B 02 Sep 12:25:51 12:32:56 25° 57° (ENE) 12:39:22 435.800 - 435.900 CW/SSB
AO-Echo 02 Sep 12:26:00 12:27:41 12° 58° (ENE) 12:29:21 ?
Oscar 16 02 Sep 12:52:31 12:57:23 44° 69° (ENE) 13:02:17 437.025 USB, Beacon 2401.1428
MaSat-1 02 Sep 12:56:20 13:01:18 89° 116° (ESE) 13:06:30 437.345 MHz
ITAMSAT 1 02 Sep 12:57:08 13:01:02 22° 62° (ENE) 13:04:58 435.822 SSB
ISS 02 Sep 13:03:58 13:06:33 20° 1° (N) 13:09:08 145.800 FM
Uribyol 2 02 Sep 13:05:51 13:10:10 28° 65° (ENE) 13:14:29 436.500 FM
TMSAT-1 02 Sep 13:22:50 13:25:23 14° 57° (ENE) 13:27:56 436.925 FM
AO-27 02 Sep 13:25:52 13:30:39 39° 68° (ENE) 13:35:26 436.795 MHz FM
SO-50 02 Sep 13:38:03 13:39:23 11° 253° (WSW) 13:40:42 436.795 FM
UOSAT-12 02 Sep 13:38:45 13:43:31 86° 56° (NE) 13:48:11 437.025 FM, 437.400 FM
Oscar 19 02 Sep 13:56:10 14:01:12 53° 260° (W) 14:06:18 437.125 CW, 437.150 USB
AO-Echo 02 Sep 14:00:45 14:05:45 86° 75° (ENE) 14:10:38 ?
Gurwin Techsat 1B 02 Sep 14:09:56 14:14:57 45° 69° (ENE) 14:19:59 435.225 FM
RS-15 02 Sep 14:12:37 14:22:27 35° 30° (NNE) 14:32:30 29.354 - 29.394 USB, Beacon 29.352 USB
JAS-1B 02 Sep 14:12:52 14:22:37 89° 254° (WSW) 14:31:13 435.800 - 435.900 CW/SSB
Oscar 16 02 Sep 14:32:44 14:36:54 25° 266° (W) 14:41:07 437.025 USB, Beacon 2401.1428
ITAMSAT 1 02 Sep 14:35:10 14:40:11 51° 260° (W) 14:45:14 435.822 SSB
MaSat-1 02 Sep 14:35:42 14:39:02 17° 316° (NW) 14:42:24 437.345 MHz
AO-7 02 Sep 14:40:35 14:47:36 32° 55° (NE) 14:54:36 29.400 - 29.500 MHz
ISS 02 Sep 14:40:50 14:43:57 35° 21° (NNE) 14:47:03 145.800 FM
Uribyol 2 02 Sep 14:44:39 14:49:28 40° 262° (W) 14:54:19 436.500 FM
Uosat F 02 Sep 14:55:40 14:59:01 18° 61° (ENE) 15:02:22 435.120 FM
TMSAT-1 02 Sep 14:59:14 15:04:31 89° 75° (ENE) 15:09:51 436.925 FM
AO-27 02 Sep 15:05:53 15:10:15 27° 265° (W) 15:14:39 436.795 MHz FM
Sapphire 02 Sep 15:10:06 15:12:51 14° 103° (ESE) 15:15:37 437.095 MHz 1200 baud AX-25 AFSK
UOSAT-12 02 Sep 15:21:12 15:22:56 12° 253° (WSW) 15:24:40 437.025 FM, 437.400 FM
PCSat 02 Sep 15:37:10 15:41:39 27° 109° (ESE) 15:46:09 145.825 MHz
AO-Echo 02 Sep 15:43:50 15:45:07 11° 272° (W) 15:46:23 ?
Gurwin Techsat 1B 02 Sep 15:50:49 15:55:06 25° 267° (W) 15:59:26 435.225 FM
JAS-1B 02 Sep 16:06:53 16:13:50 22° 271° (W) 16:20:20 435.800 - 435.900 CW/SSB
ISS 02 Sep 16:17:33 16:20:43 41° 219° (SW) 16:23:52 145.800 FM
RS-15 02 Sep 16:25:15 16:36:23 90° 57° (ENE) 16:47:57 29.354 - 29.394 USB, Beacon 29.352 USB
OPAL 02 Sep 16:25:41 16:29:31 20° 94° (E) 16:33:18 ?
AO-7 02 Sep 16:31:32 16:39:49 68° 255° (WSW) 16:48:08 29.400 - 29.500 MHz
Uosat F 02 Sep 16:32:23 16:37:20 62° 258° (WSW) 16:42:18 435.120 FM
JAS-2 02 Sep 16:42:15 16:46:43 23° 64° (ENE) 16:50:53 435.800 - 435.900 CW/SSB, 435.910 FM
TMSAT-1 02 Sep 16:43:19 16:45:10 12° 273° (W) 16:47:00 436.925 FM
Sapphire 02 Sep 16:50:07 16:55:31 84° 301° (WNW) 17:00:59 437.095 MHz 1200 baud AX-25 AFSK
Hamsat 02 Sep 17:16:24 17:20:22 36° 70° (ENE) 17:24:22 145.90 MHz
PCSat 02 Sep 17:19:35 17:24:48 47° 307° (NW) 17:30:04 145.825 MHz
OPAL 02 Sep 18:03:36 18:08:43 55° 291° (WNW) 18:13:46 ?
STRAND 1 02 Sep 18:15:49 18:17:42 12° 88° (E) 18:19:34 ?
JAS-2 02 Sep 18:25:43 18:31:34 53° 259° (W) 18:36:53 435.800 - 435.900 CW/SSB, 435.910 FM
AO-7 02 Sep 18:30:58 18:34:07 12° 274° (W) 18:37:16 29.400 - 29.500 MHz
Sapphire 02 Sep 18:36:13 18:39:48 18° 322° (NW) 18:43:24 437.095 MHz 1200 baud AX-25 AFSK
RS-15 02 Sep 18:39:04 18:47:19 25° 258° (WSW) 18:55:50 29.354 - 29.394 USB, Beacon 29.352 USB
HO-68 02 Sep 18:47:52 18:51:25 15° 49° (NE) 18:54:58 435.675 MHz FM
Hamsat 02 Sep 18:53:04 18:56:25 22° 267° (W) 18:59:49 145.90 MHz
PCSat 02 Sep 19:07:44 19:09:38 12° 330° (NNW) 19:11:31 145.825 MHz
SO-67 02 Sep 19:10:45 19:14:13 80° 257° (WSW) 19:17:42 435.3500 MHz FM
STRAND 1 02 Sep 19:52:24 19:57:32 85° 285° (WNW) 20:02:39 ?
HO-68 02 Sep 20:30:46 20:37:49 66° 69° (ENE) 20:44:53 435.675 MHz FM
UKube-1 02 Sep 20:52:55 20:57:01 43° 70° (ENE) 21:01:08 145.840 MHz, 145.915 MHz
Oscar 11 02 Sep 20:56:01 20:59:46 29° 68° (ENE) 21:03:34 145.825 FM, Beacon 2401.500 USB
MaSat-1 02 Sep 21:13:12 21:17:15 29° 51° (NE) 21:20:51 437.345 MHz
Saudisat 1A 02 Sep 21:19:08 21:22:49 27° 114° (ESE) 21:26:31 436.775 MHz
FUNcube-1 02 Sep 21:30:49 21:34:21 27° 67° (ENE) 21:37:58 145.950 - 145.970 MHz USB
STRAND 1 02 Sep 21:33:53 21:35:56 12° 303° (WNW) 21:37:59 ?
KITSAT 1 02 Sep 21:50:54 21:57:14 26° 105° (ESE) 22:03:35 435.175 FM
HO-68 02 Sep 22:20:23 22:26:02 25° 267° (W) 22:31:43 435.675 MHz FM
UKube-1 02 Sep 22:30:24 22:33:25 18° 267° (W) 22:36:27 145.840 MHz, 145.915 MHz
Oscar 11 02 Sep 22:32:14 22:35:56 27° 265° (W) 22:39:40 145.825 FM, Beacon 2401.500 USB
MaSat-1 02 Sep 22:50:19 22:54:11 30° 254° (WSW) 22:57:36 437.345 MHz
Saudisat 1A 02 Sep 22:58:08 23:02:15 38° 312° (NW) 23:06:24 436.775 MHz
FUNcube-1 02 Sep 23:07:02 23:10:41 28° 265° (W) 23:14:25 145.950 - 145.970 MHz USB
KITSAT 1 02 Sep 23:43:47 23:51:52 75° 305° (NW) 00:00:00 435.175 FM
Sapphire 02 Sep 23:54:16 23:58:16 20° 41° (NE) 00:02:16 437.095 MHz 1200 baud AX-25 AFSK
PCSat 03 Sep 00:22:58 00:27:50 32° 48° (NE) 00:32:40 145.825 MHz
Oscar 16 03 Sep 01:04:29 01:07:05 14° 89° (E) 01:09:40 437.025 USB, Beacon 2401.1428
Sapphire 03 Sep 01:36:54 01:42:21 80° 241° (WSW) 01:47:46 437.095 MHz 1200 baud AX-25 AFSK
AO-27 03 Sep 01:39:30 01:41:31 12° 88° (E) 01:43:31 436.795 MHz FM
KITSAT 1 03 Sep 01:42:24 01:48:44 24° 329° (NNW) 01:55:05 435.175 FM
JAS-1B 03 Sep 02:00:13 02:04:51 20° 88° (E) 02:09:07 435.800 - 435.900 CW/SSB
PCSat 03 Sep 02:06:15 02:11:23 43° 247° (WSW) 02:16:28 145.825 MHz
Oscar 19 03 Sep 02:06:21 02:11:25 50° 100° (E) 02:16:26 437.125 CW, 437.150 USB
AO-Echo 03 Sep 02:07:14 02:10:59 23° 94° (E) 02:14:46 ?
SO-50 03 Sep 02:12:01 02:15:27 22° 112° (ESE) 02:18:58 436.795 FM
Gurwin Techsat 1B 03 Sep 02:25:59 02:29:11 16° 90° (E) 02:32:23 435.225 FM
Oscar 10/S400 03 Sep 02:38:02 03:46:05 38° 228° (SW) 08:30:52 145.825 - 145.975 CW/USB, Beacon 145.810 USB
Oscar 16 03 Sep 02:41:48 02:47:01 77° 286° (WNW) 02:52:12 437.025 USB, Beacon 2401.1428
ITAMSAT 1 03 Sep 02:46:32 02:51:36 51° 100° (E) 02:56:39 435.822 SSB
Uribyol 2 03 Sep 02:55:32 03:00:43 66° 102° (ESE) 03:05:53 436.500 FM
TMSAT-1 03 Sep 03:14:06 03:18:50 32° 96° (E) 03:23:33 436.925 FM
AO-27 03 Sep 03:16:28 03:21:41 85° 285° (WNW) 03:26:53 436.795 MHz FM
Sapphire 03 Sep 03:23:27 03:24:52 11° 259° (WSW) 03:26:16 437.095 MHz 1200 baud AX-25 AFSK
OPAL 03 Sep 03:41:26 03:46:11 42° 66° (ENE) 03:51:01 ?
KITSAT 1 03 Sep 03:43:40 03:47:41 14° 359° (N) 03:51:43 435.175 FM
AO-Echo 03 Sep 03:45:33 03:49:54 38° 291° (WNW) 03:54:16 ?
Oscar 19 03 Sep 03:46:24 03:50:25 23° 297° (WNW) 03:54:25 437.125 CW, 437.150 USB
JAS-1B 03 Sep 03:49:42 03:56:16 61° 291° (WNW) 04:02:00 435.800 - 435.900 CW/SSB
SO-50 03 Sep 03:51:23 03:55:42 46° 311° (NW) 04:00:10 436.795 FM
UOSAT-12 03 Sep 03:52:27 03:55:41 19° 111° (ESE) 03:58:58 437.025 FM, 437.400 FM
Gurwin Techsat 1B 03 Sep 04:04:22 04:09:40 69° 287° (WNW) 04:14:56 435.225 FM
Oscar 16 03 Sep 04:23:48 04:25:29 12° 304° (NW) 04:27:11 437.025 USB, Beacon 2401.1428
ITAMSAT 1 03 Sep 04:26:48 04:30:45 23° 297° (WNW) 04:34:43 435.822 SSB
AO-7 03 Sep 04:31:48 04:39:27 39° 98° (E) 04:47:02 29.400 - 29.500 MHz
Uribyol 2 03 Sep 04:36:13 04:39:41 18° 300° (WNW) 04:43:08 436.500 FM
Uosat F 03 Sep 04:38:54 04:43:31 36° 98° (E) 04:48:07 435.120 FM
TMSAT-1 03 Sep 04:53:59 04:58:45 35° 293° (WNW) 05:03:30 436.925 FM
AO-27 03 Sep 04:58:12 05:00:24 13° 303° (WNW) 05:02:37 436.795 MHz FM
OPAL 03 Sep 05:20:58 05:25:11 26° 264° (W) 05:29:29 ?
UOSAT-12 03 Sep 05:30:51 05:35:25 56° 309° (NW) 05:40:04 437.025 FM, 437.400 FM
STRAND 1 03 Sep 05:32:13 05:36:02 22° 62° (ENE) 05:39:52 ?
JAS-2 03 Sep 05:33:42 05:36:54 16° 91° (E) 05:40:15 435.800 - 435.900 CW/SSB, 435.910 FM
SO-50 03 Sep 05:36:14 05:37:28 11° 333° (NNW) 05:38:42 436.795 FM
KITSAT 1 03 Sep 05:40:35 05:46:44 23° 29° (NNE) 05:52:52 435.175 FM
JAS-1B 03 Sep 05:43:40 05:45:14 11° 315° (NW) 05:46:45 435.800 - 435.900 CW/SSB
Saudisat 1A 03 Sep 05:44:01 05:48:05 34° 47° (NE) 05:52:06 436.775 MHz
Gurwin Techsat 1B 03 Sep 05:47:39 05:48:39 11° 305° (NW) 05:49:39 435.225 FM
Uosat F 03 Sep 06:17:55 06:22:10 29° 295° (WNW) 06:26:25 435.120 FM
AO-7 03 Sep 06:24:29 06:32:23 51° 298° (WNW) 06:40:15 29.400 - 29.500 MHz
Hamsat 03 Sep 06:36:20 06:40:40 62° 101° (E) 06:44:55 145.90 MHz
RS-15 03 Sep 06:50:12 07:00:42 52° 112° (ESE) 07:11:03 29.354 - 29.394 USB, Beacon 29.352 USB
STRAND 1 03 Sep 07:09:55 07:14:52 51° 260° (W) 07:19:51 ?
UOSAT-12 03 Sep 07:14:29 07:16:36 13° 330° (NNW) 07:18:45 437.025 FM, 437.400 FM
JAS-2 03 Sep 07:17:12 07:22:28 69° 287° (WNW) 07:28:10 435.800 - 435.900 CW/SSB, 435.910 FM
Saudisat 1A 03 Sep 07:23:44 07:27:36 30° 245° (WSW) 07:31:26 436.775 MHz
KITSAT 1 03 Sep 07:35:40 07:43:45 69° 54° (NE) 07:51:47 435.175 FM
SO-67 03 Sep 08:06:09 08:09:37 79° 283° (WNW) 08:13:04 435.3500 MHz FM
Hamsat 03 Sep 08:13:48 08:16:07 14° 298° (WNW) 08:18:24 145.90 MHz
AO-7 03 Sep 08:19:55 08:23:15 13° 320° (NW) 08:26:35 29.400 - 29.500 MHz
ISS 03 Sep 09:00:50 09:03:48 30° 138° (SE) 09:06:47 145.800 FM
RS-15 03 Sep 09:02:23 09:13:03 53° 316° (NW) 09:23:44 29.354 - 29.394 USB, Beacon 29.352 USB
